Location: *
(49.3500°N, 12.6000°E)
Time: 06:17:21
(UTC+00:00)

STARLINK-42 - Pass Details

Date: 18 October 2019
Orbit: 548 x 551 km, 53.0° (Epoch: 13 November)

Event Time Altitude Azimuth Distance (km) Brightness Sun altitude
Rises 18:19:17 0° 275° (W) 2,717 8.7 -21.1°
Reaches altitude 10° 18:21:35 10° 281° (W) 1,824 7.4 -21.4°
Maximum altitude 18:25:37 50° 358° (N) 707 4.1 -22.1°
Enters shadow 18:26:04 47° 21° (NNE) 731 4.1 -22.2°
